Bei Facebook empfehlenBei Twitter postenGoogle plusPinterest

Das Wetter im Erzgebirge am 07.03.2017

Wetter und Klima am 07.03.2017 Holzhau im Erzgebirge (630m ü.NN)
Letzte gemessene Temperatur und Uhrzeit der Messung23:45:00 Uhr-0.70 °C
Temperatur (Maximum / Höchstwert) und Uhrzeit der Messung13:45:00 Uhr1.80 °C
Temperatur (Minimum / Tiefstwert) und Uhrzeit der Messung23:45:00-0.70 °C
Errechneter Absolutwert der Temperaturschwankungen zwischen Tmin und Tmax des Tages2.50 K
Errechnete Tagesmitteltemperatur0.32500 °C
Gesamt - Niederschlag des Tages (in flüssiger Form)4.66 Liter / m²
Luftdruck (Maximum / Höchstwert) und Zeitpunkt der Messung23:45:00 Uhr1015.10 hPa
Luftdruck (Minimum / Tiefstwert) und Zeitpunkt der Messung00:15:00 Uhr998.50 hPa
Errechneter Absolutwert der Luftdruckschwankungen des Tages16.60 hPa
Höchste gemessene Windgeschwindigkeit und Uhrzeit der Messung14:30:00 Uhr11.16 km/h
Errechnete Windhäufigkeit in Relation zu den Messwerten des Tages17.70833 %
Niedrigste Windkühle (Windchill) und Zeitpunkt der Messung17:00:00 Uhr-3.70 °C
Taupunkt (Maximum / Höchstwert) und Uhrzeit der Messung01:30:00 Uhr0.40 °C
Taupunkt (Minimum / Tiefstwert) und Uhrzeit der Messung23:45:00-1.80 °C
Anzahl der automatisch eingelesenen Messwerte 96

Detaillierte Wetter- und Klima- Messwerte für den 07.03.2017 in Holzhau im Erzgebirge (630m ü.NN)
ZeitTemperaturLuftdruckRel. LuftfeuchteWindWindrichtungWindchillTaupunktNiederschlag l/m²
23:45:00-0.70 °C1015.10 hPa93.00 %-1.80 °C4.66
23:30:00-0.60 °C1014.90 hPa94.00 %-1.50 °C4.66
23:15:00-0.70 °C1014.80 hPa93.00 %-1.80 °C4.66
23:00:00-0.70 °C1014.70 hPa93.00 %-1.80 °C4.66
22:45:00-0.60 °C1014.50 hPa93.00 %-1.70 °C4.66
22:30:00-0.70 °C1014.40 hPa93.00 %-1.80 °C4.66
22:15:00-0.60 °C1014.20 hPa93.00 %-1.70 °C4.66
22:00:00-0.50 °C1014.10 hPa93.00 %-1.60 °C4.66
21:45:00-0.40 °C1014.00 hPa93.00 %-1.50 °C4.66
21:30:00-0.40 °C1013.90 hPa93.00 %-1.50 °C4.66
21:15:00-0.50 °C1013.90 hPa93.00 %-1.60 °C4.66
21:00:00-0.60 °C1013.90 hPa93.00 %-1.70 °C4.66
20:45:00-0.60 °C1013.50 hPa93.00 %-1.70 °C4.66
20:30:00-0.60 °C1013.40 hPa93.00 %-1.70 °C4.66
20:15:00-0.50 °C1013.30 hPa93.00 %-1.60 °C4.66
20:00:00-0.50 °C1013.30 hPa93.00 %-1.60 °C4.66
19:45:00-0.50 °C1013.30 hPa93.00 %-1.60 °C4.66
19:30:00-0.50 °C1013.10 hPa93.00 %-1.60 °C4.66
19:15:00-0.50 °C1013.10 hPa93.00 %-1.60 °C4.66
19:00:00-0.50 °C1012.70 hPa93.00 %-1.60 °C4.66
18:45:00-0.60 °C1012.60 hPa93.00 %-1.70 °C4.66
18:30:00-0.60 °C1012.30 hPa93.00 %-1.70 °C4.66
18:15:00-0.60 °C1012.10 hPa93.00 %-1.70 °C4.66
18:00:00-0.60 °C1011.60 hPa93.00 %-1.70 °C4.66
17:45:00-0.70 °C1011.50 hPa93.00 %-1.80 °C4.66
17:30:00-0.70 °C1011.30 hPa93.00 %-1.80 °C4.66
17:15:00-0.60 °C1011.30 hPa94.00 %2.88 km/hW-0.60 °C-1.50 °C4.66
17:00:00-0.40 °C1011.00 hPa94.00 %9.72 km/hW-3.70 °C-1.30 °C4.14
16:45:00-0.30 °C1010.60 hPa93.00 %5.40 km/hW-2.10 °C-1.40 °C4.14
16:30:00-0.20 °C1010.50 hPa93.00 %6.84 km/hWNW-2.60 °C-1.30 °C4.14
16:15:00-0.10 °C1010.30 hPa93.00 %-1.20 °C4.14
16:00:000.10 °C1010.10 hPa93.00 %5.76 km/hNW-1.80 °C-0.90 °C4.14
15:45:000.20 °C1010.30 hPa92.00 %-0.90 °C4.14
15:30:000.40 °C1010.00 hPa92.00 %-0.70 °C4.14
15:15:000.80 °C1009.70 hPa91.00 %5.04 km/hNW-0.70 °C-0.50 °C3.62
15:00:001.20 °C1009.40 hPa91.00 %-0.10 °C3.62
14:45:001.30 °C1009.10 hPa91.00 %0.00 °C3.62
14:30:001.20 °C1008.90 hPa90.00 %11.16 km/hW-2.20 °C-0.30 °C3.10
14:15:001.30 °C1008.80 hPa90.00 %3.24 km/hWNW1.30 °C-0.20 °C2.59
14:00:001.50 °C1008.50 hPa90.00 %0.00 °C2.59
13:45:001.80 °C1008.40 hPa90.00 %7.92 km/hW-0.60 °C0.30 °C2.07
13:30:001.60 °C1008.00 hPa90.00 %0.10 °C2.07
13:15:001.40 °C1007.90 hPa90.00 %-0.10 °C1.55
13:00:001.60 °C1007.70 hPa90.00 %0.10 °C1.03
12:45:001.30 °C1007.60 hPa91.00 %0.00 °C1.03
12:30:001.00 °C1007.50 hPa91.00 %5.40 km/hNW-0.60 °C-0.30 °C1.03
12:15:001.50 °C1007.30 hPa91.00 %0.20 °C1.03
12:00:001.40 °C1006.90 hPa92.00 %4.68 km/hWNW1.40 °C0.20 °C1.03
11:45:001.30 °C1006.80 hPa92.00 %0.10 °C1.03
11:30:001.30 °C1006.50 hPa91.00 %4.68 km/hWNW1.30 °C0.00 °C1.03
11:15:001.30 °C1006.20 hPa92.00 %0.10 °C1.03
11:00:001.30 °C1006.10 hPa92.00 %0.10 °C1.03
10:45:001.30 °C1005.80 hPa92.00 %3.60 km/hW1.30 °C0.10 °C1.03
10:30:001.20 °C1005.60 hPa93.00 %0.20 °C1.03
10:15:001.10 °C1005.20 hPa93.00 %4.32 km/hW1.10 °C0.10 °C1.03
10:00:000.80 °C1004.90 hPa94.00 %-0.10 °C1.03
09:45:000.60 °C1004.80 hPa94.00 %4.32 km/hWNW0.60 °C-0.30 °C1.03
09:30:000.60 °C1004.30 hPa94.00 %-0.30 °C1.03
09:15:000.50 °C1004.30 hPa94.00 %-0.40 °C1.03
09:00:000.40 °C1003.90 hPa94.00 %-0.50 °C1.03
08:45:000.30 °C1003.50 hPa94.00 %-0.50 °C1.03
08:30:000.10 °C1003.40 hPa94.00 %-0.70 °C1.03
08:15:000.00 °C1003.20 hPa94.00 %-0.90 °C1.03
08:00:00-0.10 °C1002.80 hPa94.00 %-1.00 °C1.03
07:45:00-0.10 °C1002.50 hPa94.00 %-1.00 °C1.03
07:30:00-0.10 °C1002.10 hPa94.00 %-1.00 °C1.03
07:15:00-0.10 °C1002.20 hPa94.00 %-1.00 °C1.03
07:00:00-0.10 °C1002.20 hPa94.00 %-1.00 °C1.03
06:45:00-0.10 °C1001.80 hPa94.00 %-1.00 °C1.03
06:30:00-0.10 °C1001.60 hPa94.00 %-1.00 °C1.03
06:15:00-0.10 °C1001.50 hPa94.00 %-1.00 °C1.03
06:00:00-0.10 °C1001.40 hPa94.00 %-1.00 °C1.03
05:45:00-0.10 °C1001.00 hPa94.00 %-1.00 °C1.03
05:30:00-0.10 °C1000.90 hPa94.00 %-1.00 °C1.03
05:15:00-0.10 °C1000.70 hPa94.00 %-1.00 °C1.03
05:00:00-0.10 °C1000.80 hPa94.00 %-1.00 °C1.03
04:45:00-0.10 °C1000.50 hPa94.00 %-1.00 °C1.03
04:30:00-0.10 °C1000.40 hPa93.00 %-1.20 °C1.03
04:15:000.00 °C1000.20 hPa93.00 %-1.10 °C1.03
04:00:000.20 °C1000.10 hPa93.00 %-0.80 °C1.03
03:45:000.40 °C1000.10 hPa93.00 %-0.60 °C1.03
03:30:000.60 °C1000.00 hPa93.00 %-0.40 °C1.03
03:15:000.80 °C999.80 hPa93.00 %-0.20 °C1.03
03:00:000.90 °C999.70 hPa93.00 %-0.10 °C0.51
02:45:000.90 °C999.80 hPa93.00 %-0.10 °C0.51
02:30:001.00 °C999.60 hPa93.00 %0.00 °C0.51
02:15:001.20 °C999.40 hPa93.00 %5.40 km/hWNW-0.40 °C0.20 °C0.51
02:00:001.30 °C999.30 hPa93.00 %0.30 °C0.51
01:45:001.30 °C999.20 hPa93.00 %0.30 °C0.51
01:30:001.40 °C999.40 hPa93.00 %1.08 km/hWNW1.40 °C0.40 °C0.51
01:15:001.40 °C999.20 hPa92.00 %0.20 °C0.51
01:00:001.30 °C999.10 hPa92.00 %0.10 °C0.51
00:45:001.30 °C998.90 hPa91.00 %0.00 °C 
00:30:001.30 °C998.70 hPa91.00 %0.00 °C 
00:15:001.20 °C998.50 hPa91.00 %-0.10 °C 
00:00:001.10 °C998.50 hPa91.00 %-0.20 °C 

Permanenter Link zu dieser Seite: Wetter im Erzgebirge am 07.03.2017
Performance-Info: Die Erstellung der Seite / Statistik(en) / Tabelle(n) erforderte 5 Datenbankserver-Abfrage(n) und dauerte 129 Millisekunden. (Dieser Messwert ist von der Gesamt-Auslastung des Servers abhängig.)
Erzgebirge - Wetter | Erzgebirge - Wetter (Mobilgeräte) | Komplette Klimadatenbank